TimeCDT,TemperatureF,Dew PointF,Humidity,Sea Level PressureIn,VisibilityMPH,Wind Direction,Wind SpeedMPH,Gust SpeedMPH,PrecipitationIn,Events,Conditions,WindDirDegrees,DateUTC
12:15 AM,35.2,26.6,71,30.04,10.0,Calm,Calm,-,N/A,,Overcast,0,2013-03-23 05:15:00
12:35 AM,34.9,27.3,74,30.04,10.0,Calm,Calm,-,N/A,,Overcast,0,2013-03-23 05:35:00
12:55 AM,35.4,27.5,73,30.03,10.0,Calm,Calm,-,N/A,,Overcast,0,2013-03-23 05:55:00
1:15 AM,34.9,26.2,71,30.03,10.0,Calm,Calm,-,N/A,,Overcast,0,2013-03-23 06:15:00
1:35 AM,34.9,26.8,72,30.03,10.0,Calm,Calm,-,N/A,,Overcast,0,2013-03-23 06:35:00
1:55 AM,34.9,26.6,72,30.03,10.0,Calm,Calm,-,N/A,,Overcast,0,2013-03-23 06:55:00
2:15 AM,34.7,28.6,78,30.04,10.0,Calm,Calm,-,N/A,,Overcast,0,2013-03-23 07:15:00
2:35 AM,34.7,28.2,77,30.03,10.0,Calm,Calm,-,N/A,,Overcast,0,2013-03-23 07:35:00
2:55 AM,35.2,24.4,65,30.02,10.0,Calm,Calm,-,N/A,,Overcast,0,2013-03-23 07:55:00
3:15 AM,35.6,23.5,62,30.02,10.0,Calm,Calm,-,N/A,,Overcast,0,2013-03-23 08:15:00
3:35 AM,35.6,24.8,65,30.01,10.0,Calm,Calm,-,N/A,,Overcast,0,2013-03-23 08:35:00
3:55 AM,35.6,24.6,64,30.01,10.0,Calm,Calm,-,N/A,,Overcast,0,2013-03-23 08:55:00
4:15 AM,35.2,25.7,68,30.01,10.0,Calm,Calm,-,N/A,,Overcast,0,2013-03-23 09:15:00
4:35 AM,35.4,26.2,69,30.01,10.0,Calm,Calm,-,N/A,,Overcast,0,2013-03-23 09:35:00
4:55 AM,34.9,26.8,72,30.01,10.0,Calm,Calm,-,N/A,,Overcast,0,2013-03-23 09:55:00
5:15 AM,35.2,25.7,68,30.01,10.0,Calm,Calm,-,N/A,,Overcast,0,2013-03-23 10:15:00
5:35 AM,35.6,25.9,68,30.02,10.0,Calm,Calm,-,N/A,,Overcast,0,2013-03-23 10:35:00
5:55 AM,35.6,25.7,67,30.01,10.0,Calm,Calm,-,N/A,,Overcast,0,2013-03-23 10:55:00
6:15 AM,35.6,25.5,67,30.03,10.0,Calm,Calm,-,N/A,,Overcast,0,2013-03-23 11:15:00
6:35 AM,35.6,25.5,67,30.03,10.0,Calm,Calm,-,N/A,,Overcast,0,2013-03-23 11:35:00
6:55 AM,35.6,26.2,69,30.04,10.0,Calm,Calm,-,N/A,,Overcast,0,2013-03-23 11:55:00
7:15 AM,35.6,26.1,68,30.05,10.0,Calm,Calm,-,N/A,,Overcast,0,2013-03-23 12:15:00
7:35 AM,36.0,26.4,68,30.05,10.0,Calm,Calm,-,N/A,,Overcast,0,2013-03-23 12:35:00
7:55 AM,36.5,26.1,66,30.05,10.0,Calm,Calm,-,N/A,,Overcast,0,2013-03-23 12:55:00
8:15 AM,36.9,25.3,63,30.05,10.0,Calm,Calm,-,N/A,,Overcast,0,2013-03-23 13:15:00
8:35 AM,37.9,25.0,60,30.05,10.0,Calm,Calm,-,N/A,,Overcast,0,2013-03-23 13:35:00
8:55 AM,38.8,24.6,57,30.05,10.0,ENE,3.5,-,N/A,,Overcast,60,2013-03-23 13:55:00
9:15 AM,39.7,24.8,55,30.05,10.0,NE,4.6,-,N/A,,Overcast,40,2013-03-23 14:15:00
9:35 AM,40.3,25.0,54,30.06,10.0,ENE,5.8,-,N/A,,Overcast,60,2013-03-23 14:35:00
9:55 AM,41.9,25.2,52,30.06,10.0,East,5.8,-,N/A,,Overcast,80,2013-03-23 14:55:00
10:15 AM,43.0,24.8,49,30.05,10.0,NE,5.8,-,N/A,,Overcast,50,2013-03-23 15:15:00
10:35 AM,44.6,26.6,49,30.05,10.0,East,10.4,-,N/A,,Scattered Clouds,100,2013-03-23 15:35:00
10:55 AM,44.6,24.4,45,30.05,10.0,East,10.4,-,N/A,,Clear,100,2013-03-23 15:55:00
11:15 AM,45.5,24.8,44,30.03,10.0,East,12.7,-,N/A,,Clear,100,2013-03-23 16:15:00
11:35 AM,47.5,26.2,44,30.03,10.0,East,11.5,-,N/A,,Clear,100,2013-03-23 16:35:00
11:55 AM,47.1,23.0,39,30.04,10.0,ESE,9.2,16.1,N/A,,Clear,110,2013-03-23 16:55:00
12:15 PM,47.7,22.5,37,30.04,10.0,ESE,4.6,-,N/A,,Clear,110,2013-03-23 17:15:00
12:35 PM,48.4,22.8,37,30.03,10.0,East,8.1,-,N/A,,Clear,90,2013-03-23 17:35:00
12:55 PM,49.1,23.5,37,30.03,10.0,ENE,3.5,-,N/A,,Clear,60,2013-03-23 17:55:00
1:15 PM,49.5,24.3,37,30.01,10.0,East,9.2,-,N/A,,Clear,80,2013-03-23 18:15:00
1:35 PM,50.2,23.9,36,30.00,10.0,NNE,6.9,-,N/A,,Clear,30,2013-03-23 18:35:00
1:55 PM,51.1,24.3,35,29.99,10.0,ENE,6.9,-,N/A,,Clear,60,2013-03-23 18:55:00
2:15 PM,50.9,24.8,36,29.97,10.0,ENE,10.4,-,N/A,,Clear,60,2013-03-23 19:15:00
2:35 PM,52.0,25.3,36,29.97,10.0,ENE,6.9,-,N/A,,Clear,60,2013-03-23 19:35:00
2:55 PM,52.2,25.9,36,29.96,10.0,North,9.2,-,N/A,,Clear,10,2013-03-23 19:55:00
3:15 PM,52.2,25.0,35,29.96,10.0,NNE,8.1,-,N/A,,Clear,30,2013-03-23 20:15:00
3:35 PM,53.2,26.4,35,29.95,10.0,NE,9.2,-,N/A,,Clear,50,2013-03-23 20:35:00
3:55 PM,52.9,26.6,36,29.93,10.0,ENE,6.9,-,N/A,,Clear,70,2013-03-23 20:55:00
4:15 PM,52.7,25.3,35,29.92,10.0,NNE,6.9,-,N/A,,Clear,30,2013-03-23 21:15:00
4:35 PM,52.9,25.7,35,29.92,10.0,NNE,6.9,-,N/A,,Clear,30,2013-03-23 21:35:00
4:55 PM,52.3,27.0,37,29.92,10.0,East,8.1,-,N/A,,Clear,80,2013-03-23 21:55:00
5:15 PM,52.0,26.1,37,29.92,10.0,NE,5.8,-,N/A,,Clear,40,2013-03-23 22:15:00
5:35 PM,52.2,27.7,39,29.91,10.0,ENE,6.9,-,N/A,,Clear,60,2013-03-23 22:35:00
5:55 PM,51.4,25.9,37,29.90,10.0,NE,8.1,-,N/A,,Clear,50,2013-03-23 22:55:00
6:15 PM,50.7,26.1,38,29.90,10.0,NE,5.8,-,N/A,,Clear,50,2013-03-23 23:15:00
6:35 PM,50.0,28.4,43,29.88,10.0,NE,8.1,-,N/A,,Clear,50,2013-03-23 23:35:00
6:55 PM,48.6,29.3,47,29.88,10.0,NE,6.9,-,N/A,,Clear,50,2013-03-23 23:55:00
7:15 PM,47.3,28.8,49,29.87,10.0,NE,6.9,-,N/A,,Clear,50,2013-03-24 00:15:00
7:35 PM,46.4,28.9,51,29.87,10.0,NE,6.9,-,N/A,,Clear,40,2013-03-24 00:35:00
7:55 PM,45.5,28.6,52,29.87,10.0,NE,5.8,-,N/A,,Clear,50,2013-03-24 00:55:00
8:15 PM,44.8,28.4,53,29.88,10.0,NE,3.5,-,N/A,,Clear,40,2013-03-24 01:15:00
8:35 PM,44.2,28.4,54,29.88,10.0,NE,4.6,-,N/A,,Clear,40,2013-03-24 01:35:00
8:55 PM,44.1,28.6,55,29.88,10.0,NNE,4.6,-,N/A,,Mostly Cloudy,30,2013-03-24 01:55:00
9:15 PM,44.2,28.0,53,29.88,10.0,NE,5.8,-,N/A,,Overcast,40,2013-03-24 02:15:00
9:35 PM,44.6,28.4,53,29.88,10.0,NE,6.9,-,N/A,,Overcast,50,2013-03-24 02:35:00
9:55 PM,43.3,28.4,56,29.87,10.0,NE,8.1,-,N/A,,Overcast,50,2013-03-24 02:55:00
10:15 PM,42.8,28.4,57,29.87,10.0,NE,6.9,-,N/A,,Overcast,40,2013-03-24 03:15:00
10:35 PM,42.4,28.0,57,29.86,10.0,NE,9.2,-,N/A,,Overcast,40,2013-03-24 03:35:00
10:55 PM,42.3,27.9,57,29.85,10.0,NE,8.1,-,N/A,,Overcast,50,2013-03-24 03:55:00
11:15 PM,41.9,27.5,57,29.85,10.0,ENE,6.9,-,N/A,,Overcast,60,2013-03-24 04:15:00
11:35 PM,41.9,27.5,57,29.85,10.0,NE,6.9,-,N/A,,Overcast,40,2013-03-24 04:35:00
11:55 PM,41.4,27.3,57,29.84,10.0,NE,5.8,-,N/A,,Overcast,40,2013-03-24 04:55:00